tititudorancea.com
Station Historical Data
Daily Summary for January 25, 2019 Units:  Metric    English   Both
« Previous Day
Next Day »
Daily Weekly Monthly Yearly Custom
  High: Low: Average:
Temperature: -17.8 °C 18.3 °C 30.2 °C
Dew Point: -17.8 °C 10.7 °C 13.8 °C
Humidity: Humidity % 21 % 39 %
Wind Speed: 0 km/h 4.8 km/h 17.9 km/h
Wind Gust: 0 km/h - -
Wind:- - South
Pressure: 0 hPa 1000.6 hPa -
Precipitation: 0 mm    
Historical Graphs
 
 
Ararat weather Find more about Weather in Ararat, AU


 



 


Tabular Data for January 25, 2019
Time Temperature Dew Point Pressure Wind Wind Speed Wind Gust Humidity Rainfall Rate (Hourly)
-17.8 °C -17.8 °C 0 hPa Calm     Humidity % 0 mm
00:04 29.7 °C 11.2 °C 1004.3 hPa North 5.6 km/h 2.7 km/h 32 % 0 mm
00:09 29.8 °C 10.9 °C 1004.3 hPa North 5.6 km/h 3.2 km/h 31 % 0 mm
00:14 30.1 °C 11.1 °C 1003.9 hPa North 5.6 km/h 2.6 km/h 31 % 0 mm
00:19 30.3 °C 10.8 °C 1004.3 hPa North 5.6 km/h 3.4 km/h 30 % 0 mm
00:24 30.4 °C 10.9 °C 1003.9 hPa North 5.6 km/h 3.4 km/h 30 % 0 mm
00:29 30.3 °C 10.8 °C 1003.9 hPa North 5.6 km/h 3.1 km/h 30 % 0 mm
00:34 30.3 °C 10.8 °C 1003.9 hPa North 5.6 km/h 4.2 km/h 30 % 0 mm
00:39 30.3 °C 10.8 °C 1003.9 hPa North 7.4 km/h 6.1 km/h 30 % 0 mm
00:44 30.3 °C 10.8 °C 1003.9 hPa North 7.4 km/h 2.4 km/h 30 % 0 mm
00:49 30.3 °C 10.8 °C 1003.9 hPa North 5.6 km/h 3.4 km/h 30 % 0 mm
00:54 30.2 °C 10.7 °C 1003.9 hPa North 7.4 km/h 4 km/h 30 % 0 mm
00:59 29.9 °C 11 °C 1003.9 hPa North 7.4 km/h 5.3 km/h 31 % 0 mm
01:04 29.7 °C 11.3 °C 1003.9 hPa North 7.4 km/h 3.5 km/h 32 % 0 mm
01:09 29.5 °C 11.1 °C 1003.6 hPa North 5.6 km/h 2.6 km/h 32 % 0 mm
01:14 29.3 °C 11.3 °C 1003.6 hPa North 5.6 km/h 3.5 km/h 33 % 0 mm
01:19 29.2 °C 11.2 °C 1003.6 hPa North 5.6 km/h 4.8 km/h 33 % 0 mm
01:24 29.1 °C 11.7 °C 1003.6 hPa North 5.6 km/h 6.1 km/h 34 % 0 mm
01:29 29.2 °C 11.7 °C 1003.6 hPa North 9.7 km/h 5.3 km/h 34 % 0 mm
01:34 29.6 °C 12.1 °C 1003.3 hPa North 7.4 km/h 5.3 km/h 34 % 0 mm
01:39 29.9 °C 11.9 °C 1003.3 hPa North 7.4 km/h 4.3 km/h 33 % 0 mm
01:44 30.2 °C 12.1 °C 1003.3 hPa North 9.3 km/h 7.4 km/h 33 % 0 mm
01:49 30.4 °C 12.3 °C 1003.3 hPa North 11.1 km/h 7.2 km/h 33 % 0 mm
01:54 30.7 °C 12.6 °C 1002.9 hPa North 9.3 km/h 6.9 km/h 33 % 0 mm
01:59 30.8 °C 12.7 °C 1002.9 hPa North 11.1 km/h 5.8 km/h 33 % 0 mm
02:04 30.9 °C 12.8 °C 1002.9 hPa NNE 7.4 km/h 5.6 km/h 33 % 0 mm
02:09 31 °C 12.8 °C 1002.9 hPa NNE 9.3 km/h 2.9 km/h 33 % 0 mm
02:14 30.9 °C 12.8 °C 1002.9 hPa NNE 9.3 km/h 6.3 km/h 33 % 0 mm
02:19 30.9 °C 12.7 °C 1002.9 hPa NNE 5.6 km/h 3.5 km/h 33 % 0 mm
02:24 30.8 °C 12.7 °C 1002.6 hPa NNE 5.6 km/h 3.7 km/h 33 % 0 mm
02:29 30.7 °C 13.1 °C 1002.6 hPa NNE 5.6 km/h 3.7 km/h 34 % 0 mm
02:34 30.7 °C 12.6 °C 1002.6 hPa NNE 5.6 km/h 3.9 km/h 33 % 0 mm
02:39 30.7 °C 13.1 °C 1002.6 hPa NNE 5.6 km/h 1.8 km/h 34 % 0 mm
02:44 30.6 °C 12.9 °C 1002.3 hPa NNE 5.6 km/h 2.1 km/h 34 % 0 mm
02:49 30.6 °C 12.9 °C 1002.3 hPa NNE 5.6 km/h 3.1 km/h 34 % 0 mm
02:54 30.6 °C 12.9 °C 1002.3 hPa NNE 5.6 km/h 2.1 km/h 34 % 0 mm
02:59 30.6 °C 12.9 °C 1002.3 hPa NNE 5.6 km/h 4.5 km/h 34 % 0 mm
03:04 30.7 °C 13.1 °C 1002.3 hPa NNE 7.4 km/h 3.7 km/h 34 % 0 mm
03:09 30.9 °C 13.2 °C 1002.3 hPa NNE 4.8 km/h 4.2 km/h 34 % 0 mm
03:14 31.1 °C 13.3 °C 1001.9 hPa NNE 7.4 km/h 4.3 km/h 34 % 0 mm
03:19 31.2 °C 13.5 °C 1001.9 hPa NNE 14.5 km/h 4.8 km/h 34 % 0 mm
03:24 31.6 °C 13.8 °C 1001.9 hPa NNE 11.1 km/h 5.1 km/h 34 % 0 mm
03:29 31.8 °C 13.5 °C 1001.9 hPa NNE 5.6 km/h 3.2 km/h 33 % 0 mm
03:34 31.9 °C 13.7 °C 1001.6 hPa NE 8 km/h 6.9 km/h 33 % 0 mm
03:39 32.1 °C 13.8 °C 1001.6 hPa NE 13 km/h 6 km/h 33 % 0 mm
03:44 32.2 °C 13.8 °C 1001.2 hPa NE 9.7 km/h 4.8 km/h 33 % 0 mm
03:49 32.3 °C 14.4 °C 1001.2 hPa NE 18.5 km/h 8.4 km/h 34 % 0 mm
03:54 32.5 °C 14.2 °C 1001.2 hPa NE 9.7 km/h 7.2 km/h 33 % 0 mm
03:59 32.6 °C 14.2 °C 1001.2 hPa NNE 14.5 km/h 6.9 km/h 33 % 0 mm
04:04 32.7 °C 14.3 °C 1001.2 hPa NE 13 km/h 13.5 km/h 33 % 0 mm
04:09 32.8 °C 14.4 °C 1000.9 hPa NNE 20.4 km/h 13.4 km/h 33 % 0 mm
04:14 32.9 °C 14.5 °C 1000.9 hPa NNE 16.7 km/h 8.9 km/h 33 % 0 mm
04:19 32.9 °C 14.6 °C 1000.9 hPa NNE 18.5 km/h 9 km/h 33 % 0 mm
04:24 33 °C 14.6 °C 1000.9 hPa NNE 18.5 km/h 10.9 km/h 33 % 0 mm
04:29 33.1 °C 14.6 °C 1000.9 hPa NNE 13 km/h 9.3 km/h 33 % 0 mm
04:34 33 °C 14.6 °C 1000.9 hPa NNE 14.5 km/h 10.1 km/h 33 % 0 mm
04:39 32.9 °C 14.6 °C 1000.9 hPa NNE 18.5 km/h 10.3 km/h 33 % 0 mm
04:44 32.9 °C 14.6 °C 1000.9 hPa NNE 20.4 km/h 10 km/h 33 % 0 mm
04:49 32.9 °C 14.1 °C 1000.9 hPa NNE 20.4 km/h 11.1 km/h 32 % 0 mm
04:54 32.9 °C 14.6 °C 1000.6 hPa North 18.5 km/h 10.9 km/h 33 % 0 mm
04:59 33 °C 14.6 °C 1000.9 hPa NNE 29.6 km/h 17.5 km/h 33 % 0 mm
05:04 33.1 °C 14.6 °C 1000.9 hPa NNE 31.5 km/h 19.6 km/h 33 % 0 mm
05:09 33 °C 14.6 °C 1001.2 hPa NNE 24.1 km/h 9 km/h 33 % 0 mm
05:14 32.9 °C 14.6 °C 1001.2 hPa North 17.7 km/h 9.2 km/h 33 % 0 mm
05:19 32.8 °C 14.9 °C 1001.2 hPa North 16.1 km/h 12.2 km/h 34 % 0 mm
05:24 32.7 °C 14.8 °C 1001.2 hPa North 27.8 km/h 17.4 km/h 34 % 0 mm
05:29 32.6 °C 14.7 °C 1001.2 hPa North 18.5 km/h 12.4 km/h 34 % 0 mm
05:34 32.4 °C 14.6 °C 1001.2 hPa North 16.7 km/h 7.6 km/h 34 % 0 mm
05:39 32.3 °C 14.9 °C 1001.6 hPa North 13 km/h 9.2 km/h 35 % 0 mm
05:44 32.1 °C 14.7 °C 1001.6 hPa NNW 16.1 km/h 8.7 km/h 35 % 0 mm
05:49 32 °C 14.6 °C 1001.6 hPa NNW 18.5 km/h 10.8 km/h 35 % 0 mm
05:54 31.9 °C 14.6 °C 1001.6 hPa NNW 11.1 km/h 8.5 km/h 35 % 0 mm
05:59 31.7 °C 14.8 °C 1001.6 hPa NNW 11.1 km/h 7.6 km/h 36 % 0 mm
06:04 31.6 °C 14.7 °C 1001.9 hPa North 11.1 km/h 7.2 km/h 36 % 0 mm
06:09 31.5 °C 14.6 °C 1001.9 hPa North 16.7 km/h 6.6 km/h 36 % 0 mm
06:14 31.4 °C 14.6 °C 1001.9 hPa North 11.1 km/h 8.4 km/h 36 % 0 mm
06:19 31.4 °C 14.9 °C 1001.9 hPa North 14.8 km/h 10.8 km/h 37 % 0 mm
06:24 31.3 °C 14.9 °C 1001.9 hPa North 14.8 km/h 7.9 km/h 37 % 0 mm
06:29 31.2 °C 14.8 °C 1001.9 hPa North 13 km/h 6.9 km/h 37 % 0 mm
06:34 31.1 °C 14.7 °C 1001.9 hPa North 14.5 km/h 10.5 km/h 37 % 0 mm
06:39 31.1 °C 14.7 °C 1001.9 hPa North 16.1 km/h 8.9 km/h 37 % 0 mm
06:44 31 °C 14.6 °C 1001.9 hPa North 11.1 km/h 7.1 km/h 37 % 0 mm
06:49 30.9 °C 14.9 °C 1001.9 hPa North 9.3 km/h 7.4 km/h 38 % 0 mm
06:54 30.9 °C 14.9 °C 1001.9 hPa North 16.1 km/h 6.8 km/h 38 % 0 mm
06:59 30.9 °C 14.9 °C 1001.9 hPa North 14.8 km/h 6.6 km/h 38 % 0 mm
07:04 30.9 °C 14.9 °C 1002.3 hPa North 13 km/h 4.2 km/h 38 % 0 mm
07:09 30.9 °C 14.9 °C 1002.3 hPa North 14.8 km/h 5.5 km/h 38 % 0 mm
07:14 31 °C 15 °C 1002.3 hPa North 14.8 km/h 4.3 km/h 38 % 0 mm
07:19 30.9 °C 14.9 °C 1002.6 hPa NNW 13 km/h 5.8 km/h 38 % 0 mm
07:24 30.8 °C 14.9 °C 1002.3 hPa NNW 9.3 km/h 7.1 km/h 38 % 0 mm
07:29 30.8 °C 14.9 °C 1002.6 hPa NNW 9.3 km/h 7.2 km/h 38 % 0 mm
07:34 30.9 °C 14.9 °C 1002.6 hPa North 13 km/h 6.6 km/h 38 % 0 mm
07:39 31.1 °C 15.1 °C 1002.6 hPa North 16.1 km/h 11.1 km/h 38 % 0 mm
07:44 31.3 °C 14.9 °C 1002.6 hPa North 13 km/h 7.6 km/h 37 % 0 mm
07:49 31.5 °C 15.1 °C 1002.6 hPa NNW 13 km/h 9 km/h 37 % 0 mm
07:54 31.7 °C 14.8 °C 1002.6 hPa NNW 16.7 km/h 10.6 km/h 36 % 0 mm
07:59 31.8 °C 14.9 °C 1002.6 hPa NNW 22.2 km/h 12.2 km/h 36 % 0 mm
08:04 32 °C 15.1 °C 1002.6 hPa NW 16.7 km/h 12.2 km/h 36 % 0 mm
08:09 32 °C 14.6 °C 1002.6 hPa NNW 20.4 km/h 12.6 km/h 35 % 0 mm
08:14 31.9 °C 14.6 °C 1002.9 hPa North 20.9 km/h 8.4 km/h 35 % 0 mm
08:19 32 °C 14.6 °C 1002.6 hPa North 31.5 km/h 8.5 km/h 35 % 0 mm
08:24 32.1 °C 14.7 °C 1002.9 hPa North 20.4 km/h 10.5 km/h 35 % 0 mm
08:29 32.2 °C 14.3 °C 1002.9 hPa NW 22.2 km/h 18.3 km/h 34 % 0 mm
08:34 32.2 °C 14.8 °C 1002.6 hPa North 18.5 km/h 9.7 km/h 35 % 0 mm
08:39 32.2 °C 14.4 °C 1002.6 hPa North 20.4 km/h 10.3 km/h 34 % 0 mm
08:44 32.3 °C 14.4 °C 1002.6 hPa North 19.3 km/h 18.5 km/h 34 % 0 mm
08:49 32.4 °C 14.5 °C 1002.6 hPa NNE 22.2 km/h 11.1 km/h 34 % 0 mm
08:54 32.5 °C 14.2 °C 1002.6 hPa NNW 22.5 km/h 11.1 km/h 33 % 0 mm
08:59 32.7 °C 13.8 °C 1002.6 hPa North 31.5 km/h 17.5 km/h 32 % 0 mm
09:04 32.8 °C 13.9 °C 1002.6 hPa NNW 22.2 km/h 11.9 km/h 32 % 0 mm
09:09 33.2 °C 14.3 °C 1002.3 hPa North 22.2 km/h 16.4 km/h 32 % 0 mm
09:14 33.4 °C 13.9 °C 1002.6 hPa North 24.1 km/h 18.2 km/h 31 % 0 mm
09:19 33.4 °C 13.9 °C 1002.6 hPa North 29.6 km/h 17.4 km/h 31 % 0 mm
09:24 33.6 °C 14.1 °C 1002.6 hPa North 14.8 km/h 12.2 km/h 31 % 0 mm
09:29 33.8 °C 13.8 °C 1002.6 hPa North 31.5 km/h 11.6 km/h 30 % 0 mm
09:34 34.1 °C 14 °C 1002.6 hPa North 22.2 km/h 16.3 km/h 30 % 0 mm
09:39 34.3 °C 13.7 °C 1002.6 hPa NNW 25.9 km/h 17.5 km/h 29 % 0 mm
09:44 34.4 °C 13.8 °C 1002.3 hPa NNW 20.4 km/h 12.4 km/h 29 % 0 mm
09:49 34.7 °C 13.5 °C 1002.3 hPa NNE 29.6 km/h 16.6 km/h 28 % 0 mm
09:54 34.8 °C 13.6 °C 1002.3 hPa North 24.1 km/h 15.9 km/h 28 % 0 mm
09:59 34.8 °C 13.1 °C 1002.3 hPa North 29.6 km/h 19.5 km/h 27 % 0 mm
10:04 34.8 °C 13.6 °C 1002.3 hPa North 31.5 km/h 17.7 km/h 28 % 0 mm
10:09 35.2 °C 13.4 °C 1002.6 hPa North 16.7 km/h 8.2 km/h 27 % 0 mm
10:14 35.7 °C 13.2 °C 1002.6 hPa North 20.9 km/h 14.6 km/h 26 % 0 mm
10:19 35.8 °C 13.3 °C 1002.6 hPa NNW 24.1 km/h 15.4 km/h 26 % 0 mm
10:24 35.7 °C 12.7 °C 1002.6 hPa North 24.1 km/h 18 km/h 25 % 0 mm
10:29 35.8 °C 12.7 °C 1002.6 hPa NNE 25.9 km/h 12.6 km/h 25 % 0 mm
10:34 36 °C 12.9 °C 1002.6 hPa NNW 24.1 km/h 12.2 km/h 25 % 0 mm
10:39 36.2 °C 13.1 °C 1002.6 hPa North 25.9 km/h 10 km/h 25 % 0 mm
10:44 36.4 °C 13.2 °C 1002.9 hPa NNW 16.1 km/h 9.8 km/h 25 % 0 mm
10:49 36.4 °C 13.2 °C 1002.6 hPa NNW 14.5 km/h 11.9 km/h 25 % 0 mm
10:54 36.3 °C 12.6 °C 1002.6 hPa NNW 27.8 km/h 20.4 km/h 24 % 0 mm
10:59 36.4 °C 13.2 °C 1002.6 hPa North 20.4 km/h 12.1 km/h 25 % 0 mm
11:04 36.4 °C 12.6 °C 1002.6 hPa NW 25.9 km/h 13.7 km/h 24 % 0 mm
11:09 36.3 °C 13.2 °C 1002.6 hPa North 19.3 km/h 13.4 km/h 25 % 0 mm
11:14 36.5 °C 12.7 °C 1002.6 hPa NW 18.5 km/h 13.7 km/h 24 % 0 mm
11:19 36.9 °C 12.4 °C 1002.6 hPa NNW 18.5 km/h 11.4 km/h 23 % 0 mm
11:24 37.2 °C 13.2 °C 1002.3 hPa North 13 km/h 9.3 km/h 24 % 0 mm
11:29 37.5 °C 12.2 °C 1002.6 hPa NW 20.4 km/h 14.5 km/h 22 % 0 mm
11:34 37.5 °C 12.8 °C 1002.6 hPa NNW 14.8 km/h 12.2 km/h 23 % 0 mm
11:39 37.7 °C 12.3 °C 1002.6 hPa NNW 16.7 km/h 11.6 km/h 22 % 0 mm
11:44 37.7 °C 12.4 °C 1002.3 hPa NW 11.1 km/h 8.2 km/h 22 % 0 mm
11:49 38.1 °C 11.9 °C 1002.3 hPa NW 18.5 km/h 16.4 km/h 21 % 0 mm
11:54 37.9 °C 11.8 °C 1002.3 hPa NNW 14.8 km/h 8.7 km/h 21 % 0 mm
11:59 38.1 °C 11.9 °C 1002.3 hPa WNW 25.9 km/h 9.2 km/h 21 % 0 mm
12:04 37.7 °C 11.7 °C 1002.3 hPa West 16.1 km/h 9.8 km/h 21 % 0 mm
12:09 37.9 °C 11.8 °C 1002.3 hPa WSW 9.3 km/h 10.3 km/h 21 % 0 mm
12:14 38.2 °C 12.1 °C 1002.3 hPa SW 16.7 km/h 11.3 km/h 21 % 0 mm
12:19 38.2 °C 12.8 °C 1002.3 hPa WSW 20.4 km/h 14.8 km/h 22 % 0 mm
12:24 37.8 °C 12.4 °C 1002.3 hPa WSW 18.5 km/h 8.9 km/h 22 % 0 mm
12:29 37.8 °C 12.4 °C 1002.3 hPa WSW 11.1 km/h 4 km/h 22 % 0 mm
12:34 37.7 °C 13.7 °C 1002.3 hPa SW 24.1 km/h 14.5 km/h 24 % 0 mm
12:39 37 °C 14.3 °C 1002.3 hPa SW 30.6 km/h 21.1 km/h 26 % 0 mm
12:44 36.5 °C 15.1 °C 1002.6 hPa SSW 35.2 km/h 22.7 km/h 28 % 0 mm
12:49 36.7 °C 14.6 °C 1002.3 hPa SSW 27.8 km/h 17.5 km/h 27 % 0 mm
12:54 36.5 °C 15.1 °C 1002.3 hPa SSW 22.5 km/h 19 km/h 28 % 0 mm
12:59 36.2 °C 14.2 °C 1002.3 hPa SW 20.9 km/h 18.8 km/h 27 % 0 mm
13:04 36 °C 15.2 °C 1002.3 hPa South 24.1 km/h 19 km/h 29 % 0 mm
13:09 35.8 °C 15 °C 1002.3 hPa SSW 25.9 km/h 17.4 km/h 29 % 0 mm
13:14 35.7 °C 15.4 °C 1002.3 hPa SSW 31.5 km/h 16.6 km/h 30 % 0 mm
13:19 36.1 °C 15.8 °C 1002.3 hPa South 18.5 km/h 13.2 km/h 30 % 0 mm
13:23 36.4 °C 16.1 °C 1002.3 hPa SSW 31.5 km/h 21.6 km/h 30 % 0 mm
16:49 37.4 °C 13.4 °C 1001.2 hPa West 42.6 km/h 27.2 km/h 24 % 0 mm
16:54 37.2 °C 13.9 °C 1001.2 hPa West 31.5 km/h 20.3 km/h 25 % 0 mm
16:59 37.1 °C 13.8 °C 1001.6 hPa North 27.8 km/h 23.7 km/h 25 % 0 mm
17:04 36.9 °C 13.7 °C 1001.6 hPa West 42.6 km/h 33.3 km/h 25 % 0 mm
17:09 36.8 °C 13.6 °C 1001.6 hPa West 38.9 km/h 30.3 km/h 25 % 0 mm
17:14 36.8 °C 14.2 °C 1001.9 hPa West 33.3 km/h 19.8 km/h 26 % 0 mm
17:19 36.7 °C 14.1 °C 1001.9 hPa WSW 31.5 km/h 19.6 km/h 26 % 0 mm
17:24 35.7 °C 14.9 °C 1002.3 hPa SSW 24.1 km/h 12.4 km/h 29 % 0 mm
17:29 34.3 °C 14.8 °C 1002.3 hPa SW 22.5 km/h 16.4 km/h 31 % 0 mm
17:34 33.6 °C 15.1 °C 1002.3 hPa SSW 22.2 km/h 15.3 km/h 33 % 0 mm
17:39 32.7 °C 14.8 °C 1002.3 hPa South 31.5 km/h 13.5 km/h 34 % 0 mm
17:44 32 °C 15.1 °C 1002.6 hPa SSW 13 km/h 10.8 km/h 36 % 0 mm
17:49 31.7 °C 15.2 °C 1002.6 hPa SSW 18.5 km/h 7.9 km/h 37 % 0 mm
17:54 31.5 °C 15.1 °C 1002.6 hPa SSW 18.5 km/h 11.9 km/h 37 % 0 mm
17:59 31.6 °C 15.2 °C 1002.6 hPa SW 24.1 km/h 15.3 km/h 37 % 0 mm
18:04 31.6 °C 15.2 °C 1002.9 hPa SW 18.5 km/h 17.2 km/h 37 % 0 mm
18:09 31.6 °C 14.7 °C 1002.9 hPa SSW 31.5 km/h 22.9 km/h 36 % 0 mm
18:14 31.4 °C 14.9 °C 1002.9 hPa SSW 19.3 km/h 15.6 km/h 37 % 0 mm
18:19 31 °C 15 °C 1003.3 hPa SW 29.6 km/h 20.4 km/h 38 % 0 mm
18:24 30.7 °C 15.5 °C 1003.3 hPa SSW 31.5 km/h 16.7 km/h 40 % 0 mm
18:29 30.3 °C 15.6 °C 1003.3 hPa SSW 27.8 km/h 17.5 km/h 41 % 0 mm
18:34 30 °C 15.3 °C 1003.3 hPa SSW 29.6 km/h 13.7 km/h 41 % 0 mm
18:39 29.7 °C 15.4 °C 1002.9 hPa South 29.6 km/h 17.7 km/h 42 % 0 mm
18:44 29.5 °C 15.2 °C 1003.3 hPa South 18.5 km/h 15.6 km/h 42 % 0 mm
18:49 29.3 °C 15.1 °C 1003.3 hPa SSW 24.1 km/h 13.4 km/h 42 % 0 mm
18:54 29.3 °C 15.1 °C 1003.6 hPa SSW 19.3 km/h 17.2 km/h 42 % 0 mm
18:59 29.2 °C 14.9 °C 1003.6 hPa SSW 18.5 km/h 9.5 km/h 42 % 0 mm
19:04 29.1 °C 14.9 °C 1003.6 hPa SSW 20.9 km/h 16.3 km/h 42 % 0 mm
19:09 29.1 °C 14.4 °C 1003.9 hPa SSW 27.8 km/h 17.4 km/h 41 % 0 mm
19:14 28.9 °C 14.4 °C 1004.3 hPa SSW 37 km/h 18.5 km/h 41 % 0 mm
19:19 28.8 °C 14.6 °C 1004.3 hPa SSW 27.8 km/h 21.1 km/h 42 % 0 mm
19:24 28.6 °C 14.4 °C 1004.6 hPa SW 27.8 km/h 24.3 km/h 42 % 0 mm
19:29 28.5 °C 14.7 °C 1004.6 hPa North 20.4 km/h 12.6 km/h 43 % 0 mm
19:34 28.2 °C 14.8 °C 1005 hPa SW 29.6 km/h 20.1 km/h 44 % 0 mm
19:39 27.9 °C 14.9 °C 1005.3 hPa South 31.5 km/h 18.5 km/h 45 % 0 mm
19:44 27.1 °C 15.2 °C 1005.3 hPa South 24.1 km/h 12.9 km/h 48 % 0 mm
19:49 26.2 °C 15.6 °C 1005.6 hPa SSW 31.5 km/h 15.8 km/h 52 % 0 mm
19:54 25.8 °C 15.5 °C 1005.6 hPa South 16.7 km/h 9.7 km/h 53 % 0 mm
19:59 25.5 °C 15.5 °C 1005.6 hPa SSW 18.5 km/h 17.9 km/h 54 % 0 mm
20:04 25.2 °C 15.6 °C 1005.6 hPa SSW 16.7 km/h 13 km/h 55 % 0 mm
20:09 24.9 °C 15.6 °C 1005.6 hPa SSW 24.1 km/h 14.6 km/h 56 % 0 mm
20:14 24.8 °C 15.4 °C 1005.6 hPa SSW 18.5 km/h 12.4 km/h 56 % 0 mm
20:19 24.6 °C 15.5 °C 1005.6 hPa South 18.5 km/h 10.3 km/h 57 % 0 mm
20:24 24.2 °C 15.7 °C 1005.6 hPa South 14.8 km/h 5.5 km/h 59 % 0 mm
20:29 24 °C 15.5 °C 1005.6 hPa South 8 km/h 4.3 km/h 59 % 0 mm
20:34 23.8 °C 15.6 °C 1005.6 hPa South 11.1 km/h 7.6 km/h 60 % 0 mm
20:39 23.6 °C 15.6 °C 1005.6 hPa SSE 14.8 km/h 9.5 km/h 61 % 0 mm
20:44 23.4 °C 15.7 °C 1005.6 hPa SSE 9.7 km/h 4.7 km/h 62 % 0 mm
20:49 23.2 °C 15.6 °C 1006 hPa South 14.8 km/h 9.5 km/h 62 % 0 mm
20:54 23 °C 15.6 °C 1006 hPa South 17.7 km/h 11.4 km/h 63 % 0 mm
20:59 22.8 °C 15.4 °C 1006 hPa South 14.8 km/h 13 km/h 63 % 0 mm
21:04 22.7 °C 15.1 °C 1006 hPa South 14.8 km/h 8.2 km/h 62 % 0 mm
21:09 22.6 °C 14.7 °C 1006 hPa South 14.8 km/h 6.9 km/h 61 % 0 mm
21:14 22.6 °C 14.7 °C 1006 hPa South 13 km/h 8 km/h 61 % 0 mm
21:19 22.4 °C 14.3 °C 1006 hPa South 11.3 km/h 7.6 km/h 60 % 0 mm
21:24 22.3 °C 13.6 °C 1006 hPa South 11.3 km/h 7.2 km/h 58 % 0 mm
21:29 22.2 °C 12.9 °C 1006 hPa South 14.8 km/h 10.1 km/h 56 % 0 mm
21:34 22 °C 12.6 °C 1006.3 hPa South 20.4 km/h 12.9 km/h 55 % 0 mm
21:39 21.8 °C 12.7 °C 1006.3 hPa South 22.2 km/h 9.3 km/h 56 % 0 mm
21:44 21.7 °C 12.8 °C 1006.7 hPa SSW 13 km/h 8.7 km/h 57 % 0 mm
21:49 21.6 °C 12.7 °C 1007 hPa SSW 20.4 km/h 9.7 km/h 57 % 0 mm
21:54 21.4 °C 12.8 °C 1006.7 hPa SSW 18.5 km/h 10.9 km/h 58 % 0 mm
21:59 21.3 °C 12.9 °C 1007 hPa SSW 13 km/h 12.7 km/h 59 % 0 mm
22:04 21.1 °C 13.1 °C 1007.3 hPa SSW 20.4 km/h 11.1 km/h 60 % 0 mm
22:09 21 °C 13.2 °C 1007.3 hPa South 22.5 km/h 16.4 km/h 61 % 0 mm
22:14 20.9 °C 13.3 °C 1007.3 hPa SSW 18.5 km/h 12.9 km/h 62 % 0 mm
22:19 20.8 °C 13.5 °C 1007 hPa SSW 18.5 km/h 11.3 km/h 63 % 0 mm
22:24 20.7 °C 13.4 °C 1006.7 hPa SSE 18.5 km/h 10.8 km/h 63 % 0 mm
22:29 20.5 °C 13.7 °C 1006.3 hPa SSW 27.4 km/h 16.3 km/h 65 % 0 mm
22:34 20.2 °C 13.9 °C 1007.3 hPa SSW 22.2 km/h 15 km/h 67 % 0 mm
22:39 20 °C 14.1 °C 1007 hPa South 13 km/h 9 km/h 69 % 0 mm
22:44 19.8 °C 14.2 °C 1007.3 hPa South 13 km/h 11.3 km/h 70 % 0 mm
22:49 19.7 °C 14.3 °C 1008 hPa SSW 14.8 km/h 12.9 km/h 71 % 0 mm
22:54 19.6 °C 14.4 °C 1007.3 hPa South 27.8 km/h 17.7 km/h 72 % 0 mm
22:59 19.4 °C 14.3 °C 1007.3 hPa South 18.5 km/h 13.2 km/h 72 % 0 mm
23:04 19.4 °C 14.4 °C 1008 hPa South 16.7 km/h 10.3 km/h 73 % 0 mm
23:09 19.3 °C 14.4 °C 1008 hPa SSE 13 km/h 5.6 km/h 73 % 0 mm
23:14 19.3 °C 14.5 °C 1008 hPa South 16.7 km/h 11.4 km/h 74 % 0 mm
23:19 19.2 °C 14.6 °C 1007.7 hPa SSE 16.7 km/h 9.8 km/h 75 % 0 mm
23:24 19.1 °C 14.8 °C 1006.7 hPa South 18.5 km/h 12.2 km/h 76 % 0 mm
23:29 18.8 °C 14.9 °C 1007 hPa South 16.7 km/h 7.1 km/h 78 % 0 mm
23:34 18.7 °C 15 °C 1008.4 hPa South 7.4 km/h 5.1 km/h 79 % 0 mm
23:39 18.7 °C 14.9 °C 1008.4 hPa SSW 20.4 km/h 15 km/h 79 % 0 mm
23:44 18.6 °C 14.9 °C 1006 hPa North 27.8 km/h 21.2 km/h 79 % 0 mm
23:49 18.5 °C 15 °C 1006 hPa SE 18.5 km/h 10.6 km/h 80 % 0 mm
23:54 18.4 °C 15.1 °C 1007.3 hPa SE 16.7 km/h 8.9 km/h 81 % 0 mm
23:59 18.3 °C 15 °C 1007.7 hPa SE 18.5 km/h 8.7 km/h 81 % 0 mm
Ararat Weather
Compliments of Weather Underground - 2 mb
Click here to send mail.


ABOUT

Live weather data from Ararat, Victoria, Australia, 3377
Data uploaded from Cumulus every 5 minutes to Weather Underground.
This site then downloads the raw data for formatting and display.
Metric and imperial data can be displayed. Graphs and historical data available.
Includes Sun and Moon times and rain image live from BOM.

Check out Ararat Weather on Facebook, Twitter and Google +

Help support ongoing costs by checking out the ads





Follow @AraratWeather